| time (UTC) | temp C | wind direction | speed KPH | gust KPH | rain 1hr cm | rain 24hr cm | rain mn cm | humidity % | barometer mb |
| 20260906130502 | 22 | 349 | 1.6 | 4.8 | 0.00 | 0.00 | 0.00 | 92 | 1014.2 |
| 20260906130002 | 22 | 298 | 1.6 | 4.8 | 0.00 | 0.00 | 0.00 | 92 | 1014.0 |
| 20260906125458 | 22 | 28 | 0.0 | 1.6 | 0.00 | 0.00 | 0.00 | 92 | 1014.0 |
| 20260906123458 | 22 | 355 | 3.2 | 6.4 | 0.00 | 0.00 | 0.00 | 92 | 1013.9 |
| 20260906121959 | 22 | 280 | 3.2 | 6.4 | 0.00 | 0.00 | 0.00 | 92 | 1013.7 |
| 20260906120459 | 22 | 355 | 0.0 | 3.2 | 0.00 | 0.00 | 0.00 | 92 | 1013.4 |
| 20260906115500 | 22 | 348 | 1.6 | 4.8 | 0.00 | 0.00 | 0.00 | 91 | 1013.2 |
| 20260906113959 | 22 | 327 | 0.0 | 3.2 | 0.00 | 0.00 | 0.00 | 91 | 1013.2 |
| 20260906113500 | 22 | 327 | 0.0 | 3.2 | 0.00 | 0.00 | 0.00 | 91 | 1013.2 |
| 20260906113000 | 22 | 348 | 1.6 | 3.2 | 0.00 | 0.00 | 0.00 | 91 | 1013.1 |
| 20260906111959 | 22 | 15 | 1.6 | 4.8 | 0.00 | 0.00 | 0.00 | 90 | 1012.9 |
| 20260906110459 | 23 | 355 | 0.0 | 0.0 | 0.00 | 0.00 | 0.00 | 90 | 1012.7 |
| 20260906105459 | 23 | 9 | 0.0 | 0.0 | 0.00 | 0.00 | 0.00 | 90 | 1012.7 |
| 20260906104959 | 23 | 9 | 0.0 | 3.2 | 0.00 | 0.00 | 0.00 | 90 | 1012.6 |
| 20260906104459 | 23 | 9 | 0.0 | 4.8 | 0.00 | 0.00 | 0.00 | 90 | 1012.6 |
| 20260906103000 | 23 | 9 | 1.6 | 4.8 | 0.00 | 0.00 | 0.00 | 89 | 1012.5 |
| 20260906101958 | 23 | 350 | 3.2 | 3.2 | 0.00 | 0.00 | 0.00 | 89 | 1012.5 |
| 20260906101458 | 23 | 312 | 1.6 | 4.8 | 0.00 | 0.00 | 0.00 | 89 | 1012.5 |
| 20260906095500 | 24 | 11 | 0.0 | 8.0 | 0.00 | 0.00 | 0.00 | 88 | 1012.3 |
| 20260906093959 | 24 | 18 | 1.6 | 3.2 | 0.00 | 0.00 | 0.00 | 87 | 1012.1 |
| 20260906093500 | 24 | 345 | 1.6 | 4.8 | 0.00 | 0.00 | 0.00 | 87 | 1012.0 |
| 20260906090959 | 25 | 5 | 0.0 | 0.0 | 0.00 | 0.00 | 0.00 | 86 | 1012.1 |
| 20260906085458 | 25 | 5 | 0.0 | 0.0 | 0.00 | 0.00 | 0.00 | 85 | 1011.9 |
| 20260906081959 | 25 | 340 | 1.6 | 9.7 | 0.00 | 0.00 | 0.00 | 84 | 1012.0 |
| 20260906081459 | 25 | 341 | 0.0 | 4.8 | 0.00 | 0.00 | 0.00 | 84 | 1012.0 |
| 20260906080459 | 25 | 9 | 1.6 | 4.8 | 0.00 | 0.00 | 0.00 | 84 | 1012.0 |
| 20260906075000 | 26 | 360 | 0.0 | 3.2 | 0.00 | 0.00 | 0.00 | 85 | 1011.9 |
| 20260906074002 | 26 | 360 | 1.6 | 4.8 | 0.00 | 0.00 | 0.00 | 85 | 1011.7 |
| 20260906073502 | 26 | 18 | 1.6 | 4.8 | 0.00 | 0.00 | 0.00 | 86 | 1011.7 |
| 20260906072501 | 26 | 11 | 0.0 | 0.0 | 0.00 | 0.00 | 0.00 | 86 | 1011.8 |
| 20260906071500 | 26 | 334 | 0.0 | 1.6 | 0.00 | 0.00 | 0.00 | 85 | 1011.6 |
| 20260906070459 | 26 | 333 | 0.0 | 1.6 | 0.00 | 0.00 | 0.00 | 85 | 1011.7 |
| 20260906064959 | 26 | 334 | 0.0 | 0.0 | 0.00 | 0.00 | 0.00 | 85 | 1011.7 |
| 20260906063959 | 27 | 355 | 0.0 | 3.2 | 0.00 | 0.00 | 0.00 | 84 | 1011.8 |
| 20260906063459 | 27 | 59 | 0.0 | 3.2 | 0.00 | 0.00 | 0.00 | 85 | 1011.9 |
| 20260906062958 | 27 | 325 | 0.0 | 3.2 | 0.00 | 0.00 | 0.00 | 85 | 1011.9 |
| 20260906061959 | 27 | 63 | 0.0 | 3.2 | 0.00 | 0.00 | 0.00 | 84 | 1011.9 |
| 20260906061458 | 27 | 29 | 1.6 | 4.8 | 0.00 | 0.00 | 0.00 | 84 | 1011.9 |
| 20260906060458 | 27 | 344 | 0.0 | 3.2 | 0.00 | 0.00 | 0.00 | 83 | 1011.9 |
| 20260906060001 | 27 | 350 | 0.0 | 3.2 | 0.00 | 0.00 | 0.00 | 82 | 1011.9 |
| 20260906055500 | 27 | 49 | 1.6 | 3.2 | 0.00 | 0.00 | 0.00 | 82 | 1011.9 |
| 20260906052502 | 28 | 355 | 1.6 | 4.8 | 0.00 | 0.00 | 0.00 | 80 | 1011.9 |
| 20260906051500 | 28 | 5 | 0.0 | 0.0 | 0.00 | 0.00 | 0.00 | 79 | 1011.8 |
| 20260906050502 | 28 | 5 | 0.0 | 0.0 | 0.00 | 0.00 | 0.00 | 78 | 1011.7 |
| 20260906050001 | 28 | 5 | 0.0 | 0.0 | 0.00 | 0.00 | 0.00 | 78 | 1011.7 |
| 20260906045502 | 28 | 5 | 0.0 | 0.0 | 0.00 | 0.00 | 0.00 | 77 | 1011.7 |
| 20260906044501 | 28 | 5 | 0.0 | 0.0 | 0.00 | 0.00 | 0.00 | 77 | 1011.6 |
| 20260906044002 | 29 | 5 | 0.0 | 0.0 | 0.00 | 0.00 | 0.00 | 76 | 1011.6 |
| 20260906043002 | 29 | 5 | 0.0 | 1.6 | 0.00 | 0.00 | 0.00 | 76 | 1011.4 |
| 20260906042501 | 29 | 5 | 0.0 | 1.6 | 0.00 | 0.00 | 0.00 | 76 | 1011.3 |
| 20260906040501 | 29 | 11 | 0.0 | 0.0 | 0.00 | 0.00 | 0.00 | 75 | 1011.2 |
| 20260906035502 | 30 | 32 | 0.0 | 0.0 | 0.00 | 0.00 | 0.00 | 74 | 1011.1 |
| 20260906034000 | 30 | 313 | 0.0 | 0.0 | 0.00 | 0.00 | 0.00 | 72 | 1011.0 |
| 20260906033001 | 30 | 10 | 0.0 | 0.0 | 0.00 | 0.00 | 0.00 | 72 | 1010.9 |
| 20260906032500 | 30 | 10 | 0.0 | 4.8 | 0.00 | 0.00 | 0.00 | 71 | 1010.8 |
| 20260906030500 | 30 | 340 | 0.0 | 3.2 | 0.00 | 0.00 | 0.00 | 69 | 1010.7 |
| 20260906030001 | 30 | 355 | 0.0 | 3.2 | 0.00 | 0.00 | 0.00 | 69 | 1010.6 |
| 20260906025501 | 30 | 355 | 0.0 | 0.0 | 0.00 | 0.00 | 0.00 | 68 | 1010.6 |
| 20260906023000 | 30 | 355 | 0.0 | 3.2 | 0.00 | 0.00 | 0.00 | 65 | 1010.4 |
| 20260906022500 | 30 | 355 | 1.6 | 3.2 | 0.00 | 0.00 | 0.00 | 65 | 1010.4 |
| 20260906022000 | 30 | 355 | 1.6 | 3.2 | 0.00 | 0.00 | 0.00 | 65 | 1010.3 |
| 20260906021501 | 30 | 355 | 0.0 | 0.0 | 0.00 | 0.00 | 0.00 | 66 | 1010.2 |
| 20260906015502 | 30 | 15 | 0.0 | 0.0 | 0.00 | 0.00 | 0.00 | 66 | 1009.9 |
| 20260906015002 | 30 | 17 | 0.0 | 0.0 | 0.00 | 0.00 | 0.00 | 66 | 1009.8 |
| 20260906014500 | 30 | 315 | 0.0 | 0.0 | 0.00 | 0.00 | 0.00 | 65 | 1009.8 |
| 20260906014000 | 30 | 315 | 0.0 | 0.0 | 0.00 | 0.00 | 0.00 | 65 | 1009.7 |
| 20260906013003 | 30 | 315 | 0.0 | 0.0 | 0.00 | 0.00 | 0.00 | 65 | 1009.7 |
| 20260906012000 | 31 | 315 | 0.0 | 0.0 | 0.00 | 0.00 | 0.00 | 64 | 1009.6 |
| 20260906011502 | 31 | 315 | 0.0 | 0.0 | 0.00 | 0.00 | 0.00 | 64 | 1009.6 |
| 20260906011000 | 31 | 315 | 0.0 | 0.0 | 0.00 | 0.00 | 0.00 | 63 | 1009.6 |
| 20260906010500 | 31 | 315 | 0.0 | 0.0 | 0.00 | 0.00 | 0.00 | 63 | 1009.5 |
| 20260906010000 | 31 | 315 | 0.0 | 0.0 | 0.00 | 0.00 | 0.00 | 62 | 1009.5 |
| 20260906005501 | 31 | 315 | 0.0 | 0.0 | 0.00 | 0.00 | 0.00 | 63 | 1009.4 |
| 20260906005000 | 31 | 315 | 0.0 | 0.0 | 0.00 | 0.00 | 0.00 | 62 | 1009.3 |
| 20260906004500 | 32 | 315 | 0.0 | 0.0 | 0.00 | 0.00 | 0.00 | 61 | 1009.4 |
| 20260906004002 | 32 | 315 | 0.0 | 0.0 | 0.00 | 0.00 | 0.00 | 61 | 1009.4 |
| 20260906000502 | 33 | 9 | 0.0 | 3.2 | 0.00 | 0.00 | 0.00 | 59 | 1009.6 |
| 20260905235500 | 33 | 334 | 1.6 | 6.4 | 0.00 | 0.00 | 0.00 | 58 | 1009.7 |
| 20260905235000 | 33 | 25 | 1.6 | 6.4 | 0.00 | 0.00 | 0.00 | 57 | 1009.7 |
| 20260905234500 | 33 | 335 | 3.2 | 6.4 | 0.00 | 0.00 | 0.00 | 57 | 1009.6 |
| 20260905233502 | 34 | 14 | 3.2 | 6.4 | 0.00 | 0.00 | 0.00 | 56 | 1009.5 |
| 20260905232000 | 35 | 12 | 4.8 | 12.9 | 0.00 | 0.00 | 0.00 | 52 | 1009.6 |
| 20260905231501 | 36 | 5 | 3.2 | 8.0 | 0.00 | 0.00 | 0.00 | 51 | 1009.4 |
| 20260905230501 | 36 | 303 | 1.6 | 3.2 | 0.00 | 0.00 | 0.00 | 51 | 1009.4 |
| 20260905230001 | 36 | 9 | 1.6 | 3.2 | 0.00 | 0.00 | 0.00 | 51 | 1009.5 |
| 20260905223001 | 36 | 298 | 4.8 | 12.9 | 0.00 | 0.00 | 0.00 | 48 | 1009.3 |
| 20260905222000 | 37 | 10 | 3.2 | 8.0 | 0.00 | 0.00 | 0.00 | 47 | 1009.4 |
| 20260905221500 | 37 | 355 | 1.6 | 14.5 | 0.00 | 0.00 | 0.00 | 47 | 1009.4 |
| 20260905221002 | 37 | 248 | 3.2 | 12.9 | 0.00 | 0.00 | 0.00 | 49 | 1009.4 |
| 20260905215500 | 37 | 320 | 3.2 | 11.3 | 0.00 | 0.00 | 0.00 | 47 | 1009.3 |
| 20260905215002 | 37 | 258 | 4.8 | 11.3 | 0.00 | 0.00 | 0.00 | 47 | 1009.3 |
| 20260905214500 | 37 | 24 | 1.6 | 17.7 | 0.00 | 0.00 | 0.00 | 48 | 1009.3 |
| 20260905212501 | 37 | 360 | 3.2 | 16.1 | 0.00 | 0.00 | 0.00 | 44 | 1009.4 |
| 20260905211002 | 37 | 320 | 3.2 | 8.0 | 0.00 | 0.00 | 0.00 | 46 | 1009.2 |
| 20260905210502 | 37 | 317 | 1.6 | 9.7 | 0.00 | 0.00 | 0.00 | 47 | 1009.3 |
| 20260905210000 | 37 | 311 | 4.8 | 9.7 | 0.00 | 0.00 | 0.00 | 44 | 1009.4 |
| 20260905205459 | 37 | 333 | 1.6 | 9.7 | 0.00 | 0.00 | 0.00 | 46 | 1009.5 |
| 20260905204459 | 38 | 292 | 6.4 | 11.3 | 0.00 | 0.00 | 0.00 | 45 | 1009.7 |
| 20260905203959 | 37 | 331 | 3.2 | 14.5 | 0.00 | 0.00 | 0.00 | 45 | 1009.7 |
| 20260905203000 | 37 | 322 | 4.8 | 9.7 | 0.00 | 0.00 | 0.00 | 43 | 1009.7 |
| 20260905202459 | 38 | 269 | 6.4 | 9.7 | 0.00 | 0.00 | 0.00 | 46 | 1009.7 |
| 20260905201959 | 37 | 15 | 0.0 | 11.3 | 0.00 | 0.00 | 0.00 | 47 | 1009.6 |
| 20260905201459 | 37 | 330 | 0.0 | 11.3 | 0.00 | 0.00 | 0.00 | 46 | 1009.8 |
| 20260905193500 | 37 | 274 | 6.4 | 16.1 | 0.00 | 0.00 | 0.00 | 45 | 1010.4 |
| 20260905193003 | 37 | 227 | 4.8 | 14.5 | 0.00 | 0.00 | 0.00 | 44 | 1010.5 |
| 20260905192502 | 37 | 294 | 6.4 | 12.9 | 0.00 | 0.00 | 0.00 | 46 | 1010.5 |
| 20260905192001 | 37 | 233 | 3.2 | 16.1 | 0.00 | 0.00 | 0.00 | 46 | 1010.5 |
| 20260905191459 | 37 | 279 | 9.7 | 16.1 | 0.00 | 0.00 | 0.00 | 46 | 1010.6 |
| 20260905191002 | 37 | 16 | 1.6 | 12.9 | 0.00 | 0.00 | 0.00 | 47 | 1010.7 |
| 20260905190500 | 37 | 5 | 4.8 | 12.9 | 0.00 | 0.00 | 0.00 | 47 | 1010.6 |
| 20260905185000 | 37 | 355 | 6.4 | 11.3 | 0.00 | 0.00 | 0.00 | 48 | 1010.9 |
| 20260905184500 | 37 | 341 | 3.2 | 9.7 | 0.00 | 0.00 | 0.00 | 48 | 1010.9 |
| 20260905183501 | 37 | 320 | 3.2 | 9.7 | 0.00 | 0.00 | 0.00 | 48 | 1011.0 |
| 20260905182459 | 37 | 338 | 1.6 | 6.4 | 0.00 | 0.00 | 0.00 | 49 | 1011.1 |
| 20260905182002 | 37 | 350 | 3.2 | 11.3 | 0.00 | 0.00 | 0.00 | 49 | 1011.2 |
| 20260905181502 | 37 | 342 | 4.8 | 16.1 | 0.00 | 0.00 | 0.00 | 49 | 1011.2 |
| 20260905181000 | 38 | 330 | 4.8 | 16.1 | 0.00 | 0.00 | 0.00 | 48 | 1011.2 |
| 20260905180003 | 38 | 185 | 3.2 | 9.7 | 0.00 | 0.00 | 0.00 | 50 | 1011.2 |
| 20260905174002 | 37 | 212 | 0.0 | 3.2 | 0.00 | 0.00 | 0.00 | 53 | 1011.4 |
| 20260905173502 | 37 | 78 | 0.0 | 4.8 | 0.00 | 0.00 | 0.00 | 55 | 1011.4 |
| 20260905173000 | 36 | 249 | 1.6 | 9.7 | 0.00 | 0.00 | 0.00 | 53 | 1011.5 |
| 20260905172502 | 36 | 337 | 3.2 | 11.3 | 0.00 | 0.00 | 0.00 | 52 | 1011.5 |
| 20260905171502 | 36 | 19 | 1.6 | 4.8 | 0.00 | 0.00 | 0.00 | 54 | 1011.7 |
| 20260905170003 | 35 | 196 | 1.6 | 9.7 | 0.00 | 0.00 | 0.00 | 57 | 1012.0 |
| 20260905165002 | 35 | 341 | 4.8 | 9.7 | 0.00 | 0.00 | 0.00 | 56 | 1012.0 |
| 20260905163501 | 34 | 166 | 4.8 | 9.7 | 0.00 | 0.00 | 0.00 | 60 | 1012.3 |
| 20260905163000 | 34 | 209 | 4.8 | 11.3 | 0.00 | 0.00 | 0.00 | 59 | 1012.3 |
| 20260905162502 | 34 | 127 | 3.2 | 8.0 | 0.00 | 0.00 | 0.00 | 59 | 1012.4 |
| 20260905161502 | 33 | 254 | 3.2 | 11.3 | 0.00 | 0.00 | 0.00 | 61 | 1012.3 |
| 20260905160501 | 33 | 231 | 4.8 | 12.9 | 0.00 | 0.00 | 0.00 | 62 | 1012.3 |
| 20260905160001 | 33 | 322 | 4.8 | 8.0 | 0.00 | 0.00 | 0.00 | 61 | 1012.3 |
| 20260905155500 | 33 | 288 | 1.6 | 9.7 | 0.00 | 0.00 | 0.00 | 62 | 1012.4 |
| 20260905155000 | 32 | 254 | 3.2 | 9.7 | 0.00 | 0.00 | 0.00 | 64 | 1012.5 |
| 20260905154459 | 32 | 249 | 1.6 | 8.0 | 0.00 | 0.00 | 0.00 | 64 | 1012.5 |
| 20260905153459 | 32 | 220 | 3.2 | 8.0 | 0.00 | 0.00 | 0.00 | 63 | 1012.4 |
| 20260905152459 | 32 | 304 | 4.8 | 16.1 | 0.00 | 0.00 | 0.00 | 65 | 1012.5 |
| 20260905152000 | 32 | 232 | 3.2 | 14.5 | 0.00 | 0.00 | 0.00 | 65 | 1012.4 |
| 20260905151500 | 32 | 211 | 6.4 | 14.5 | 0.00 | 0.00 | 0.00 | 65 | 1012.4 |
| 20260905151001 | 31 | 205 | 1.6 | 6.4 | 0.00 | 0.00 | 0.00 | 67 | 1012.5 |
| 20260905150000 | 31 | 301 | 4.8 | 9.7 | 0.00 | 0.00 | 0.00 | 66 | 1012.4 |
| 20260905144459 | 31 | 307 | 4.8 | 12.9 | 0.00 | 0.00 | 0.00 | 65 | 1012.3 |
| 20260905144000 | 31 | 277 | 3.2 | 11.3 | 0.00 | 0.00 | 0.00 | 66 | 1012.4 |
| 20260905143500 | 31 | 321 | 3.2 | 12.9 | 0.00 | 0.00 | 0.00 | 68 | 1012.2 |
| 20260905142000 | 30 | 244 | 6.4 | 11.3 | 0.00 | 0.00 | 0.00 | 70 | 1012.3 |
| 20260905141501 | 30 | 279 | 1.6 | 8.0 | 0.00 | 0.00 | 0.00 | 72 | 1012.3 |
| 20260905135503 | 28 | 205 | 1.6 | 6.4 | 0.00 | 0.00 | 0.00 | 78 | 1012.3 |
| 20260905134002 | 27 | 185 | 0.0 | 0.0 | 0.00 | 0.00 | 0.00 | 85 | 1012.2 |
| 20260905133003 | 26 | 185 | 0.0 | 3.2 | 0.00 | 0.00 | 0.00 | 87 | 1012.1 |
| 20260905132500 | 26 | 185 | 0.0 | 4.8 | 0.00 | 0.00 | 0.00 | 86 | 1012.1 |